Aeroporto :
LOGIN :

Iscrizione | Disclaimer

   EN    FR    IT 

 










Sommario :    VFR   VFR Marginale   IFR   IFR Intensivo   IFR Molto Intensivo
Visibilità : 
Base nubi : 
>= 8 km
>= 3000ft
5 / 8 km
1000 / 3000 ft
1500m / 5 km
500 / 1000 ft
800 / 1500m
200 / 500 ft
< 800m
< 200 ft
Simboli :   Temporali  Nebbia  Neve Forte  Precipitazioni Forti  Vento > 20 kt
SIGMETs :   Varie  Temporali  Ghiacco  Turbolenza  Onda orograficha  Ceneri Vulcaniche






- Altitudine del aeroporto : 265 ft


ETSH - Holzdorf AB

ULTIMO METAR :
  • 250820Z 11011KT 9999 FEW050 24/11 Q1018 BLU+BLU+

METARs OBSOLETI :
  • 250720Z 11010KT 9999 FEW045 23/12 Q1018 BLU+BLU+
  • 250620Z 07004KT 9999 FEW300 21/13 Q1019 BLU+BLU+
  • 250520Z 08004KT 9999 FEW300 18/13 Q1019 BLU+BLU+
  • 250420Z VRB02KT 9999 FEW300 15/12 Q1019 BLU+BLU+

TAF TAF ETSH
Valido dal 25 a 08 ore il 25 a 17 ore UTC


250720Z 2508/2517 10010KT 9999 NSW SCT050



MetMap, La meteo Aeronautica in un colpo d'occhio ! - Copyright ORBIFLY Dicembre 2007 - Disclaimer

ORBIFLY MET'MAP TEAM :

Programmazione e sviluppo : Alexandra Zaïnal
Concezione : Baudouin d'Aumeries
Supporto tecnico e logistico : Manuel Goepfert
Aiuto : Marc-Olivier Méhu
Aiuto per la traduzione : Arnaldo La Scala




FONTI E CREDITI :

   NOAA